Location: Four Corners
(38.2757°N, 122.4608°W)
Time: 05:29:55
(UTC+00:00)

Cosmos 1844 Rocket - Pass Details

Date: 08 December 2019
Orbit: 825 x 844 km, 71.0° (Epoch: 26 January)

Event Time Altitude Azimuth Distance (km) Brightness Sun altitude
Rises 01:25:28 0° 331° (NNW) 3,370 5.9 -7.2°
Reaches altitude 10° 01:27:57 10° 326° (NW) 2,435 5.2 -7.7°
Maximum altitude 01:33:17 49° 253° (WSW) 1,065 3.8 -8.6°
Drops below altitude 10° 01:38:38 10° 180° (S) 2,430 5.4 -9.6°
Sets 01:41:08 0° 175° (S) 3,363 6.0 -10.1°
